Flag for Bolivia Weather past 2 weeks in Santa Cruz, Bolivia

Now
66 °F

Passing clouds.


Feels Like: 66 °F
Forecast: 69 / 83 °F
Wind: 5 mph from North

Location: Viru-Viru

Current Time: Jul 28, 2015 at 2:45:01 AM

Latest Report: Jul 28, 2015 at 2:00 AM


Visibility: N/A

Pressure: 29.86 "Hg

Humidity: 100%

Dew point: 66 °F

Location of Santa CruzLocation

Historic Weather in Santa Cruz — Graph

°F

Santa Cruz temperature yesterday

Maximum temperature yesterday: 84 °F (at 1:00 PM)
Minimum temperature yesterday: 64 °F (at 1:00 AM)
Average temperature yesterday: 74 °F

Past Weeks' High & Low Weather Summary

 TemperatureHumidityPressure
High84 °F (Jul 19, 3:00 PM)100% (Jul 13, 2:00 PM)30.24 "Hg (Jul 13, 2:00 PM)
Low52 °F (Jul 15, 1:00 AM)36% (Jul 21, 5:00 AM)29.68 "Hg (Jul 13, 4:00 PM)
Average66 °F77%30.03 "Hg
* Reported Jul 13 2:00 AM — Jul 28 2:00 AM, Santa Cruz, Weather by CustomWeather, © 2015

Note: Actual official high and low records may vary slightly from our data, if they occured in-between our weather recording intervals... More about our weather records

Advertising

Santa Cruz weather history for previous 24 hours

 ConditionsComfort  
Time TempWeatherWind HumidityBarometerVisibility
2:00 AM
Tue, Jul 28
66 °FPassing clouds.5 mph100%29.86 "HgN/A
1:00 AM68 °FPassing clouds.6 mph94%29.89 "HgN/A
12:00 AM70 °FPassing clouds.9 mph88%29.89 "HgN/A
11:00 PM
Mon, Jul 27
72 °FPassing clouds.9 mph83%29.89 "HgN/A
10:00 PM72 °FPassing clouds.8 mph88%29.89 "HgN/A
9:00 PM72 °FPassing clouds.8 mph83%29.89 "HgN/A
8:00 PM75 °FPassing clouds.12 mph69%29.89 "Hg6 mi
7:00 PM73 °FPassing clouds.10 mph78%29.86 "Hg4 mi
6:00 PM79 °FPassing clouds.14 mph61%29.86 "Hg4 mi
5:00 PM82 °FPartly sunny.14 mph51%29.83 "HgN/A
4:00 PM84 °FPartly sunny.14 mph45%29.83 "HgN/A
3:00 PM84 °FPartly sunny.17 mph45%29.83 "HgN/A
2:00 PM84 °FPartly sunny.14 mph51%29.86 "HgN/A
1:00 PM84 °FScattered clouds.18 mph51%29.89 "HgN/A
12:00 PM82 °FScattered clouds.15 mph58%29.92 "HgN/A
11:00 AM81 °FScattered clouds.15 mph62%29.95 "HgN/A
10:00 AM79 °FPassing clouds.12 mph65%29.98 "HgN/A
9:00 AM73 °FClear.10 mph78%29.95 "HgN/A
8:00 AM68 °FClear.7 mph94%29.92 "HgN/A
7:00 AM64 °FClear.7 mph94%29.92 "HgN/A
6:00 AM64 °FPassing clouds.6 mph94%29.89 "HgN/A
5:00 AM66 °FPassing clouds.7 mph94%29.89 "HgN/A
4:00 AM66 °FClear.8 mph88%29.89 "HgN/A
3:00 AM66 °FClear.8 mph88%29.89 "HgN/A
2:00 AM66 °FPassing clouds.9 mph88%29.89 "HgN/A
Weather by CustomWeather, © 2015

See weather overviewHow to use our weather pages